Home   Weather   Carson City   Past weeks

Flag for USA Past Weather in Carson City, Nevada, USA — Yesterday and Last 2 Weeks

Now
60 °F

Sunny.


Feels Like: 60 °F
Forecast: 48 / 84 °F
Wind: No wind

Location: Reno Tahoe International Airport

Current Time: Sep 28, 2016 at 10:04:43 AM

Latest Report: Sep 28, 2016 at 8:55 AM


Visibility: 10 mi

Pressure: 29.98 "Hg (25.33 "Hg at 1425m altitude)

Humidity: 36%

Dew Point: 33 °F

Location of Carson CityLocation

Past Weather in Carson City — Graph

°F

Carson City Temperature Yesterday

Maximum temperature yesterday: 89 °F (at 3:55 PM)
Minimum temperature yesterday: 50 °F (at 6:55 AM)
Average temperature yesterday: 69 °F

High & Low Weather Summary for the Past Weeks

 TemperatureHumidityPressure
High91 °F (Sep 18, 3:55 PM)63% (Sep 14, 6:55 AM)30.38 "Hg (Sep 14, 6:55 AM)
Low42 °F (Sep 23, 6:55 AM)8% (Sep 17, 2:55 PM)29.69 "Hg (Sep 21, 7:55 PM)
Average65 °F29%30.01 "Hg
* Reported Sep 13 8:55 AM — Sep 28 8:55 AM, Carson City, Weather by CustomWeather, © 2016

Note: Actual official high and low records may vary slightly from our data, if they occured in-between our weather recording intervals... More about our weather records

Advertising

Carson City Weather History for the Previous 24 Hours

Scroll right to see more
 ConditionsComfort  
Time TempWeatherWind HumidityBarometerVisibility
8:55 AM
Wed, Sep 28
60 °FSunny.No wind36%29.98 "Hg10 mi
7:55 AM54 °FSunny.No wind45%29.98 "Hg10 mi
6:55 AM50 °FSunny.No wind52%29.97 "Hg10 mi
5:55 AM51 °FClear.No wind50%29.95 "Hg10 mi
4:55 AM53 °FClear.No wind52%29.94 "Hg10 mi
3:55 AM55 °FClear.No wind47%29.93 "Hg10 mi
2:55 AM54 °FClear.No wind49%29.93 "Hg10 mi
1:55 AM58 °FClear.No wind43%29.94 "Hg10 mi
12:55 AM58 °FClear.3 mph41%29.93 "Hg10 mi
11:55 PM
Tue, Sep 27
63 °FClear.No wind33%29.93 "Hg10 mi
10:55 PM69 °FClear.6 mph24%29.92 "Hg10 mi
9:55 PM71 °FClear.5 mph22%29.93 "Hg10 mi
8:55 PM73 °FClear.3 mph22%29.92 "Hg10 mi
7:55 PM79 °FClear.5 mph16%29.90 "Hg10 mi
6:55 PM83 °FClear.5 mph13%29.88 "Hg10 mi
5:55 PM87 °FPassing clouds.3 mph11%29.87 "Hg10 mi
4:55 PM87 °FPassing clouds.No wind11%29.87 "Hg10 mi
3:55 PM89 °FPassing clouds.6 mph10%29.88 "Hg10 mi
2:55 PM88 °FPassing clouds.7 mph11%29.90 "Hg10 mi
1:55 PM86 °FPassing clouds.3 mph13%29.92 "Hg10 mi
12:55 PM84 °FSunny.3 mph13%29.95 "Hg10 mi
11:55 AM78 °FSunny.No wind16%29.99 "Hg10 mi
10:55 AM72 °FSunny.No wind22%30.03 "Hg10 mi
Weather by CustomWeather, © 2016

See weather overviewHow to use our weather pages